Regional Weather Roundup
Issued by NWS

Home | Current Version | Previous Version | Text Only | Print | Product List | Glossary Off
Versions: 1 2 3 4 5 6 7 8 9 10 11 12 13 14 15 16 17 18 19 20 21 22 23 24 25 26 27 28 29 30 31 32 33 34 35 36 37 38 39 40 41 42 43 44 45 46 47 48 49 50

000
ASUS43 KFSD 031110
RWRSD

WEATHER ROUNDUP FOR SOUTH DAKOTA
NATIONAL WEATHER SERVICE SIOUX FALLS SD
600 AM CDT TUE MAY 03 2016

NOTE: "FAIR" INDICATES FEW OR NO CLOUDS BELOW 12,000 FEET WITH NO
SIGNIFICANT WEATHER AND/OR OBSTRUCTIONS TO VISIBILITY.


SDZ001>005-009-010-012>017-031200-
NORTHWEST AND NORTH CENTRAL SOUTH DAKOTA

CITY           SKY/WX    TMP DP  RH WIND       PRES   REMARKS
BUFFALO          N/A     44  32  62 W5        30.00S
FAITH            N/A     42  36  79 W12       30.04S
MOBRIDGE       FOG       37  36  96 CALM      29.99S VSB 3/4
$$

SDZ012>016-024>037-041>051-057-063-072>074-031200-
SOUTHWEST AND SOUTH CENTRAL SOUTH DAKOTA

CITY           SKY/WX    TMP DP  RH WIND       PRES   REMARKS
RAPID CTY ARPT CLEAR     41  33  73 NW10      30.07S
PIERRE         CLOUDY    38  37  97 W6        30.02F
CUSTER         CLEAR     37  26  64 NW6       30.11S
ELLSWORTH AFB  CLEAR     35  33  93 NW7       30.06S WCI  29
PHILIP         CLEAR     34  33  96 W7        30.06S WCI  28
PINE RIDGE     MOCLDY    28  27  96 CALM      30.08S
WINNER         FAIR      40  36  86 SW3       30.05S
$$

SDZ004>011-016>023-039-040-031200-
NORTHEAST SOUTH DAKOTA

CITY           SKY/WX    TMP DP  RH WIND       PRES   REMARKS
ABERDEEN       CLOUDY    34  32  92 SW7       29.99S WCI  28
WATERTOWN      PTCLDY    38  36  92 CALM      29.99F
BROOKINGS      CLEAR     36  35  96 S3        30.00F
SISSETON         N/A     46  38  73 NW3       29.97S
$$

SDZ017-020-022-023-036>040-048>070-031200-
SOUTHEAST SOUTH DAKOTA

CITY           SKY/WX    TMP DP  RH WIND       PRES   REMARKS
SIOUX FALLS    PTCLDY    35  33  92 CALM      30.02S
HURON          CLEAR     38  38 100 CALM      30.01F
CHAMBERLAIN    CLEAR     41  41  99 W6        30.05R
MITCHELL       CLEAR     44  42  93 SW5       30.03S
YANKTON        CLEAR     43  39  87 W5        30.03S
$$

ABBREVIATIONS USED IN REMARKS
   TC - TEMPERATURE IN CELSIUS
  WCI - WIND CHILL INDEX
   HX - HEAT INDEX
  VSB - VISIBILITY





USA.gov is the U.S. government's official web portal to all federal, state and local government web resources and services.